Current Version              Previous Version:    01  02  03  04  05  06  07  08  09  10  11  12  13  14  15  16  17  18  19  20  21  22  23  24  25  26  27  28  29  30  
   31  32  33  34  35  36  37  38  39  40  41  42  43  44  45  46  47  48  49  50  51  52  53  54  55  56  57  58  59  60  

[Printable]
845
ASUS44 KFWD 271503
RWRTX
NORTH TEXAS HOURLY WEATHER ROUNDUP
NATIONAL WEATHER SERVICE FORT WORTH TX
900 AM CST THU NOV 27 2014

NOTE: "FAIR" INDICATES FEW OR NO CLOUDS BELOW 12,000 FEET WITH NO
SIGNIFICANT WEATHER AND/OR OBSTRUCTIONS TO VISIBILITY.

TXZ118-119-271600-
DALLAS/FORT WORTH METROPLEX

CITY           SKY/WX    TMP DP  RH WIND       PRES   REMARKS
DFW AIRPORT    MOSUNNY   42  26  53 NE8       30.53R WCI  37
DALLAS LOVE    MOSUNNY   44  25  47 E8        30.54R WCI  39
FTW MEACHAM    SUNNY     44  28  53 N3        30.54R
DAL-EXECUTIVE  SUNNY     46  25  43 NE6       30.53R
FTW-ALLIANCE   MOSUNNY   41  27  57 NE5       30.54R WCI  38
FTW-SPINKS     SUNNY     43  28  56 CALM      30.56R
ARLINGTON      SUNNY     45  25  45 NE6       30.55R
MESQUITE       SUNNY     43  27  52 N7        30.55R WCI  39
LANCASTER      SUNNY     43  26  52 NE5       30.56R WCI  40
$$

TXZ091>094-102>105-117-120-121-131>134-271600-
NORTH CENTRAL TEXAS

CITY           SKY/WX    TMP DP  RH WIND       PRES   REMARKS
SHRMAN/DENISON SUNNY     40  29  67 NE9       30.54S WCI  33
BRIDGEPORT     SUNNY     42  32  67 NE3       30.57R
DECATUR        SUNNY     40  26  58 NE6       30.54R WCI  36
DENTON         SUNNY     41  29  62 NE6       30.55R WCI  37
MCKINNEY       SUNNY     41  26  55 N6        30.54R WCI  37
GREENVILLE     SUNNY     43  27  52 NE9       30.53R WCI  37
ROCKWALL       SUNNY     42  27  56 NE7       30.52R WCI  37
TERRELL        SUNNY     44  27  51 NE8       30.54R WCI  39
WAXAHACHIE     SUNNY     43  30  60 NE6       30.56R WCI  39
CLEBURNE       SUNNY     43  30  61 NE8       30.55R WCI  38
GRANBURY       SUNNY     42  31  66 CALM      30.56R
$$

TXZ083>090-098>101-113>116-127>130-139>142-154-155-271600-
WESTERN NORTH TEXAS

CITY           SKY/WX    TMP DP  RH WIND       PRES   REMARKS
WICHITA FALLS  SUNNY     39  27  62 CALM      30.55R
WF-KICKAPOO    SUNNY     39  26  60 CALM      30.56S
VERNON         SUNNY     37  28  70 CALM      30.55S
ABILENE        SUNNY     40  29  64 SE7       30.52R WCI  35
ABILENE-DYESS  SUNNY     42  31  65 SE5       30.51R WCI  39
MINERAL WELLS  SUNNY     41  28  60 NE6       30.52R WCI  37
STEPHENVILLE   SUNNY     43  28  55 E7        30.55R WCI  39
COMANCHE       SUNNY     42  31  66 E3        30.53R
COLEMAN        SUNNY     42  32  68 NE3       30.53R
BRADY          SUNNY     45  28  53 E8        30.50R
$$

TXZ143>147-156>162-174-175-271600-
CENTRAL TEXAS

CITY           SKY/WX    TMP DP  RH WIND       PRES   REMARKS
WACO           SUNNY     44  31  60 N9        30.54R WCI  39
WACO-MCGREGOR  SUNNY     43  30  61 N10       30.55R WCI  37
HILLSBORO      SUNNY     45  28  50 NE8       30.54R HAZE
CORSICANA      SUNNY     45  28  51 NE8       30.54S
MEXIA          SUNNY     44  30  56 NE9       30.52R WCI  39
HEARNE         SUNNY     48  32  52 N7        30.53R
CAMERON        SUNNY     46  34  63 NE8       30.53R
TEMPLE         SUNNY     46  28  49 N9        30.52R
KILLEEN        SUNNY     44  32  64 NE10      30.52R WCI  38
KILLEEN-SKYLRK SUNNY     46  28  49 N8        30.52R
FORT HOOD      SUNNY     48  30  49 NE7       30.53R
GATESVILLE     SUNNY     45  30  57 CALM      30.55R
HAMILTON       SUNNY     43  30  60 NE5       30.53R
LAMPASAS       SUNNY     44  32  62 NE9       30.52R WCI  39
$$

TXZ095>097-106>112-122>126-135>138-148>153-164>167-271600-
EAST TEXAS

CITY           SKY/WX    TMP DP  RH WIND       PRES   REMARKS
PARIS          SUNNY     39  27  60 N10       30.55R WCI  32
SULPHUR SPRNGS SUNNY     43  26  52 NE7       30.55R WCI  39
MOUNT PLEASANT SUNNY     43  26  50 N6        30.56R WCI  40
MINEOLA        SUNNY     45  27  49 N3        30.53S
TYLER          SUNNY     45  27  49 NE12      30.51R WCI  39
LONGVIEW       SUNNY     46  28  49 N7        30.51R
MARSHALL       SUNNY     48  32  53 N7        30.55R
ATHENS         SUNNY     43  27  52 N7        30.52R WCI  39
PALESTINE      SUNNY     45  32  60 CALM      30.54R
JACKSONVILLE   SUNNY     44  30  58 NE10      30.51R WCI  38
HENDERSON      SUNNY     45  29  55 NE9       30.51S WCI  40
NACOGDOCHES    SUNNY     48  28  46 NE5       30.52R
LUFKIN         SUNNY     50  31  48 N10       30.50S
$$

SUPPLEMENTAL OBSERVATIONS (CENTRAL)

CITY           SKY/WX    TMP DP  RH WIND       PRES   REMARKS
$$

SUPPLEMENTAL OBSERVATIONS (WEST)

CITY           SKY/WX    TMP DP  RH WIND       PRES   REMARKS
$$

SUPPLEMENTAL OBSERVATIONS (EAST)

CITY           SKY/WX    TMP DP  RH WIND       PRES   REMARKS
$$

SUPPLEMENTAL OBSERVATIONS ARE A COLLECTION OF AUTOMATED INSTRUMENTS
THAT ARE MAINTAINED BY A VARIETY OF FEDERAL AND STATE AGENCIES.
CERTAIN ELEMENTS...SUCH AS HUMIDITY VALUES AND SUSTAINED WIND
SPEEDS...MAY BE APPROXIMATED.